Косино

Россия / Московская область     55°42′12″N   37°51′04″E
темп.,
°C
ветер,
м/с
пор.,
м/с
влажн.,
%
обл.,
%
осадки,
мм/ч
давл.,
гПа
погр.,
м
13 апреля, вт
вт1300:00+9вюв4139289 0.0 1027370
03:00+8вюв41194100 0.0 1026291
06:00+8юв31288100 0.0 1026246
09:00+12ююв41063100 0.0 1025337
12:00+17ююв5843100 0.0 1025709
15:00+20ю583697 0.0 10241637
18:00+18ююв49365 0.0 1023661
21:00+14юв3115490 0.0 1023237
14 апреля, ср
ср1400:00+13ююв415540 0.0 1022422
03:00+10ююв3116283 0.0 1022287
06:00+9юв386913 0.0 1021189
09:00+12ююв475697 0.0 1021297
12:00+17ююв5737100 0.0 1020897
15:00+19ююв5730100 0.0 10191543
18:00+17ююв373566 0.0 1018824
21:00+13юв365267 0.0 1018146
15 апреля, чт
чт1500:00+11юв2558100 0.0 1018103
03:00+10юв2262100 0.0 101839
06:00+9вюв2264100 0.0 101847
09:00+12вюв245385 0.0 1018218
12:00+16юв2339100 0.0 1017679
15:00+18вюв2335100 0.0 10171292
18:00+17всв2543100 0.0 1017253
21:00
16 апреля, пт
пт1600:00+11св5117598 0.0 1018377
03:00+9св51285100 0.0 1018396
06:00+8св51285100 0.0 1019427
09:00+10всв597182 0.0 1020509
12:00+13св6856100 0.0 1020825
15:00+15всв685039 0.0 10201166
18:00+14св695792 0.0 10211254
21:00+9всв6127038 0.0 1024730
17 апреля, сб
сб1700:00+10всв6116594 0.0 1023766
03:00+7св5116164 0.0 1024433
06:00+5св513625 0.0 1026489
09:00+8всв6114720 0.0 1026822
12:00+11всв693378 0.0 10271291
15:00+13св68315 0.0 10271645
18:00+12св68352 0.0 10281605
21:00+9св49491 0.0 1029851